SCP
0 0 0 0 0 0 0 0 0 0 0 0 0 0 0 0 0 0 0 0 0 0 0 0 0 0 0 0 0 0 0 0 0 0 0 0 0 0 0 0 0 0 0 0
0 0 0 0 0 0 0 0 0 0 0 0 0 0 0 0 0 0 0 0 0 0 0 0 0 0 0 0 0 0 0 0 0 0 0 0 0 0 0 0 0 0 0 0
0 0 0 0 0 0 0 0 0 0 0 0 0 0 0 0 0 0 0 0 0 0 0 0 0 0 0 0 0 0 0 0 0 0 0 0 0 0 0 0 0 0 0 0
0 0 0 0 0 0 0 0 0 0 0 0 0 0 0 0 0 0 0 0 0 0 0 0 0 0 0 0 0 0 0 0 0 0 0 0 0 0 0 0 0 0 0 0
0 0 0 0 0 0 0 0 0 0 0 0 0 0 0 0 0 0 0 0 0 0 0 0 0 0 0 0 0 0 0 0 0 0 0 0 0 0 0 0 0 0 0 0
0 0 0 0 0 0 0 0 0 0 0 0 0 0 0 0 0 0 0 0 0 0 0 0 0 0 0 0 0 0 0 0 0 0 0 0 0 0 0 0 0 0 0 0
0 0 0 0 0 0 0 0 0 0 0 0 0 0 0 0 0 0 0 0 0 0 0 0 0 0 0 0 0 0 0 0 0 0 0 0 0 0 0 0 0 0 0 0
0 0 0 0 0 0 0 0 0 0 0 0 0 0 0 0 0 0 0 0 0 0 0 0 0 0 0 0 0 0 0 0 0 0 0 0 0 0 0 0 0 0 0 0
0 0 0 0 0 0 0 0 0 0 0 0 0 0 0 0 0 0 0 0 0 0 0 0 0 0 0 0 0 0 0 0 0 0 0 0 0 0 0 0 0 0 0 0
0 0 0 0 0 0 0 0 0 0 0 0 0 0 0 0 0 0 0 0 0 0 0 0 0 0 0 0 0 0 0 0 0 0 0 0 0 0 0 0 0 0 0 0
0 0 0 0 0 0 0 0 0 0 0 0 0 0 0 0 0 0 0 0 0 0 0 0 0 0 0 0 0 0 0 0 0 0 0 0 0 0 0 0 0 0 0 0
0 0 0 0 0 0 0 0 0 0 0 0 0 0 0 0 0 0 0 0 0 0 0 0 0 0 0 0 0 0 0 0 0 0 0 0 0 0 0 0 0 0 0 0
0 0 0 0 0 0 0 0 0 0 0 0 0 0 0 0 0 0 0 0 0 0 0 0 0 0 0 0 0 0 0 0 0 0 0 0 0 0 0 0 0 0 0 0
0 0 0 0 0 0 0 0 0 0 0 0 0 0 0 0 0 0 0 0 0 0 0 0 0 0 0 0 0 0 0 0 0 0 0 0 0 0 0 0 0 0 0 0
0 0 0 0 0 0 0 0 0 0 0 0 0 0 0 0 0 0 0 0 0 0 0 0 0 0 0 0 0 0 0 0 0 0 0 0 0 0 0 0 0 0 0 0
0 0 0 0 0 0 0 0 0 0 0 0 0 0 0 0 0 0 0 0 0 0 0 0 0 0 0 0 0 0 0 0 0 0 0 0 0 0 0 0 0 0 0 0
0 0 0 0 0 0 0 0 0 0 0 0 0 0 0 0 0 0 0 0 0 0 0 0 0 0 0 0 0 0 0 0 0 0 0 0 0 0 0 0 0 0 0 0
0 0 0 0 0 0 0 0 0 0 0 0 0 0 0 0 0 0 0 0 0 0 0 0 0 0 0 0 0 0 0 0 0 0 0 0 0 0 0 0 0 0 0 0
0 0 0 0 0 0 0 0 0 0 0 0 0 0 0 0 0 0 0 0 0 0 0 0 0 0 0 0 0 0 0 0 0 0 0 0 0 0 0 0 0 0 0 0
0 0 0 0 0 0 0 0 0 0 0 0 0 0 0 0 0 0 0 0 0 0 0 0 0 0 0 0 0 0 0 0 0 0 0 0 0 0 0 0 0 0 0 0
0 0 0 0 0 0 0 0 0 0 0 0 0 0 0 0 0 0 0 0 0 0 0 0 0 0 0 0 0 0 0 0 0 0 0 0 0 0 0 0 0 0 0 0
0 0 0 0 0 0 0 0 0 0 0 0 0 0 0 0 0 0 0 0 0 0 0 0 0 0 0 0 0 0 0 0 0 0 0 0 0 0 0 0 0 0 0 0
0 0 0 0 0 0 0 0 0 0 0 0 0 0 0 0 0 0 0 0 0 0 0 0 0 0 0 0 0 0 0 0 0 0 0 0 0 0 0 0 0 0 0 0
0 0 0 0 0 0 0 0 0 0 0 0 0 0 0 0 0 0 0 0 0 0 0 0 0 0 0 0 0 0 0 0 0 0 0 0 0 0 0 0 0 0 0 0
0 0 0 0 0 0 0 0 0 0 0 0 0 0 0 0 0 0 0 0 0 0 0 0 0 0 0 0 0 0 0 0 0 0 0 0 0 0 0 0 0 0 0 0
0 0 0 0 0 0 0 0 0 0 0 0 0 0 0 0 0 0 0 0 0 0 0 0 0 0 0 0 0 0 0 0 0 0 0 0 0 0 0 0 0 0 0 0
0 0 0 0 0 0 0 0 0 0 0 0 0 0 0 0 0 0 0 0 0 0 0 0 0 0 0 0 0 0 0 0 0 0 0 0 0 0 0 0 0 0 0 0
Wind_Speed
5 5 3 5 6 5 7 7 7 8 9 9 6 5 4 3 3 3 3 3 3 2 2 2 2 2 1 2 1 1 2 2 2 2 2 2 3 3 3 3 3 3 3 3
4 3 3 6 7 7 7 6 6 7 10 6 4 3 3 4 3 3 4 4 3 3 2 2 2 3 2 2 2 1 2 2 2 2 2 2 3 3 3 2 2 2 3 3
3 3 3 6 7 6 5 5 6 8 9 3 3 4 4 4 3 4 4 4 4 3 3 3 3 3 3 3 2 2 2 2 2 2 2 2 3 3 3 3 2 2 3 3
1 2 5 7 2 4 5 5 5 6 6 3 4 4 3 2 2 4 4 4 4 4 4 4 3 3 3 2 2 2 2 2 2 2 2 2 2 3 3 2 3 3 3 3
1 2 8 6 2 2 3 5 4 6 6 4 3 3 3 2 2 3 3 4 4 4 4 4 3 3 2 2 2 2 3 3 3 3 3 3 3 3 2 2 2 2 3 3
2 3 6 6 2 1 1 5 3 2 5 4 2 2 4 3 3 4 4 4 4 4 3 3 3 2 2 2 2 3 3 3 3 3 3 4 4 3 2 2 3 2 3 3
4 5 8 5 3 1 2 5 3 2 4 3 3 5 5 5 5 4 4 4 4 3 3 3 3 2 2 2 3 3 2 2 2 2 3 3 3 2 2 2 2 2 2 3
3 4 8 2 2 4 5 3 3 3 3 3 4 5 5 5 5 5 5 5 4 3 4 3 2 1 1 2 2 1 1 1 1 2 2 2 2 2 2 2 2 2 2 2
6 7 3 2 4 3 2 3 4 4 4 4 4 5 5 5 5 5 4 4 4 3 3 3 2 1 2 3 2 1 0 1 1 1 1 2 2 3 2 2 2 2 2 2
4 6 5 4 4 4 3 4 5 4 4 4 5 5 5 5 5 5 4 4 3 3 3 3 3 2 2 2 1 0 1 1 1 1 1 1 1 2 2 3 3 3 3 3
6 6 6 5 5 6 5 5 4 4 4 4 4 5 4 4 5 4 4 4 2 2 2 3 3 3 3 2 1 0 1 1 1 1 1 1 1 2 3 3 4 4 4 3
7 5 4 6 5 4 5 5 5 4 4 3 3 4 4 4 4 3 4 3 3 3 3 3 3 3 3 2 1 1 1 1 1 1 1 1 1 1 2 3 4 6 6 6
6 5 5 7 6 5 5 6 4 3 4 4 3 3 3 3 3 3 3 3 3 3 3 3 3 3 3 2 1 1 1 1 1 1 1 1 1 1 1 2 3 4 5 6
4 3 5 5 5 5 4 4 3 3 3 3 3 3 2 2 3 3 4 4 3 2 3 3 3 3 3 2 1 1 1 2 2 1 2 2 2 2 2 2 2 2 3 5
4 4 5 5 5 4 3 2 3 3 3 3 2 2 2 2 3 4 3 3 2 2 3 2 3 4 3 2 1 1 1 1 1 1 1 1 2 2 2 2 2 3 2 3
4 3 3 4 5 4 3 2 2 3 3 3 3 2 2 2 2 3 3 2 1 2 3 3 3 4 3 2 1 1 1 3 2 1 1 1 1 1 2 2 2 2 2 3
3 4 3 4 4 4 3 3 3 3 3 3 3 3 2 2 2 3 3 2 2 2 3 3 3 3 2 1 1 1 1 2 3 2 1 1 1 1 2 2 2 2 2 3
3 3 3 3 3 3 3 3 2 2 3 3 2 2 2 2 2 3 3 3 3 3 3 3 3 2 2 2 1 1 1 1 1 1 1 1 1 1 1 2 2 3 3 3
3 3 3 3 2 2 2 2 2 2 2 2 2 2 2 2 2 3 2 2 3 4 4 3 5 3 2 2 2 1 1 1 1 1 1 2 2 1 1 2 2 3 3 3
2 2 2 2 2 1 2 2 2 2 2 2 2 2 2 3 3 2 2 2 2 3 4 4 3 3 2 3 3 1 1 1 1 1 1 1 2 2 2 2 3 3 3 3
2 2 2 2 2 2 2 2 2 2 3 2 1 2 3 3 3 2 2 3 4 3 3 5 3 2 2 2 3 1 1 1 2 2 2 2 2 2 3 3 3 3 3 4
2 2 2 2 2 3 3 2 2 2 2 2 2 2 2 3 3 2 2 3 4 6 3 2 2 4 4 3 0 1 1 2 2 2 2 2 2 3 3 3 4 4 4 4
2 2 2 2 2 2 3 2 2 2 2 3 3 3 3 3 2 2 4 3 3 5 4 3 5 7 5 2 1 1 1 2 2 2 3 3 3 3 4 4 4 4 4 4
2 2 2 2 2 2 3 3 3 2 2 3 3 3 3 3 3 3 3 6 7 7 3 5 7 7 5 1 1 1 2 2 3 3 3 3 3 3 4 4 4 4 4 5
2 2 2 2 2 2 2 3 3 3 3 3 3 3 3 2 3 3 3 4 6 6 3 5 7 7 3 2 2 2 3 3 4 3 3 3 3 4 4 4 4 4 5 5
2 2 2 2 2 2 2 2 2 3 3 3 3 3 3 2 3 3 3 3 5 6 4 3 3 4 3 3 3 3 3 4 4 3 3 4 4 4 4 4 5 5 5 5
2 2 2 2 2 2 2 2 3 3 3 3 4 4 3 3 3 3 3 3 3 3 3 3 3 3 3 3 3 3 3 3 4 4 4 4 4 4 5 5 5 5 5 5
Wind_Direction
257 267 246 249 251 223 212 216 224 247 249 263 273 275 287 299 316 332 331 334 333 328 324 324 322 318 301 287 271 213 182 191 208 207 191 178 174 178 179 181 191 187 187 196
287 272 265 268 258 238 233 232 242 263 268 268 278 292 287 285 293 303 307 312 313 310 306 298 294 292 283 267 260 224 204 212 210 194 189 188 182 176 175 183 186 186 197 197
277 309 338 273 238 218 218 216 204 236 254 281 292 280 271 273 282 289 297 301 298 296 288 284 279 272 268 257 246 217 216 223 213 200 199 195 186 178 186 189 186 201 212 206
277 23 251 249 228 211 226 242 226 246 271 278 271 289 283 271 279 296 301 300 299 297 294 289 284 288 281 264 226 217 220 223 219 211 210 195 184 191 194 193 194 207 224 217
165 242 275 290 276 184 216 272 247 248 271 283 298 326 300 304 287 275 283 286 286 285 288 290 290 287 278 268 236 221 228 226 218 209 204 193 196 200 197 196 209 217 225 218
168 216 250 259 266 238 143 281 288 253 265 278 320 295 277 316 318 305 301 301 301 303 303 296 292 279 244 243 232 236 238 233 219 209 203 202 202 203 204 208 218 224 236 230
207 235 262 268 282 125 180 264 313 284 265 262 237 241 275 313 317 316 313 313 314 308 297 288 287 267 247 243 246 255 255 241 223 214 211 206 200 203 190 202 202 220 241 250
183 217 256 285 125 179 230 282 304 297 286 269 264 282 296 304 312 321 324 323 323 316 311 318 322 294 272 270 279 288 261 233 229 221 219 204 181 193 191 182 195 220 238 257
200 219 242 183 204 235 255 273 284 291 297 293 288 289 298 304 310 313 313 315 321 318 319 332 340 321 276 297 316 315 281 238 238 234 225 208 191 192 196 190 197 218 223 240
249 264 265 264 264 281 282 274 284 286 285 283 278 288 296 300 306 310 312 313 318 325 325 324 328 324 298 298 308 284 255 269 252 226 233 220 214 203 201 204 208 219 227 234
258 275 297 276 265 277 285 283 285 288 275 270 270 282 286 293 300 306 313 317 318 310 305 308 320 323 323 318 303 258 257 260 256 245 220 223 239 225 227 229 226 227 229 228
244 247 243 273 288 291 287 287 282 283 293 292 271 273 283 287 294 301 308 314 318 314 311 313 317 317 321 321 296 226 264 267 255 252 238 223 235 313 310 277 273 268 260 255
250 270 260 272 288 286 281 286 286 276 276 289 291 278 282 288 303 308 308 308 304 302 305 312 318 318 321 316 294 247 248 258 253 248 241 236 230 235 288 322 308 290 278 273
254 269 274 275 279 290 285 288 292 289 285 279 285 293 291 299 310 310 302 300 305 313 321 322 322 317 318 314 295 281 273 274 270 241 238 236 234 237 240 250 282 295 296 293
269 249 257 281 293 299 299 299 303 306 314 317 311 306 305 306 306 306 310 321 334 340 333 334 328 318 325 323 308 290 283 265 258 248 241 237 237 238 241 249 260 277 292 296
303 297 287 289 291 299 308 304 295 302 314 317 321 315 308 303 306 318 329 343 352 329 323 323 313 311 318 318 312 303 290 304 305 265 246 249 246 243 245 248 257 266 278 287
303 301 301 301 300 304 304 296 286 293 306 309 310 316 325 335 341 339 340 343 331 317 314 307 303 311 311 298 278 283 284 295 311 307 270 256 251 250 252 253 259 272 281 289
268 276 278 275 280 290 304 314 312 311 305 306 323 341 346 341 324 321 326 337 342 339 329 312 311 311 306 297 277 272 272 270 266 266 271 268 265 257 257 261 265 272 281 289
294 293 295 289 281 280 292 305 312 315 317 324 330 326 316 310 310 315 329 350 345 328 321 321 327 334 311 297 304 264 266 266 269 276 274 285 298 285 266 261 265 269 275 281
327 328 327 330 332 306 302 310 318 322 320 319 321 327 327 321 322 323 332 323 295 283 297 312 311 306 296 293 307 265 255 250 259 273 273 265 271 275 273 272 272 272 273 273
331 338 340 338 337 336 325 321 322 317 324 336 332 313 309 314 319 319 321 310 308 306 307 315 318 301 295 298 303 264 251 255 254 258 264 265 269 272 273 275 275 275 275 277
330 335 331 333 338 336 339 340 329 325 332 334 326 315 314 315 316 309 281 273 295 312 318 303 299 306 318 328 317 277 266 262 260 259 259 262 267 270 272 273 272 273 274 274
322 324 329 332 326 323 335 340 333 327 320 314 310 305 295 292 295 291 296 297 295 307 314 296 301 312 330 353 327 290 279 272 267 265 263 263 264 265 268 271 272 273 275 278
323 330 330 331 338 342 334 331 330 319 306 303 298 290 286 293 292 268 264 296 310 312 308 302 309 316 331 339 296 278 272 270 265 262 261 262 262 264 267 270 273 274 274 275
327 327 334 336 330 316 311 320 325 320 313 306 302 297 285 270 271 287 291 290 301 311 309 307 311 317 322 295 281 274 270 266 264 262 256 263 264 266 269 271 271 275 275 274
324 319 312 306 299 303 313 317 314 313 315 313 312 308 300 288 279 283 288 286 287 300 302 294 294 301 290 281 275 273 272 281 290 281 265 265 265 267 270 272 274 272 272 273
328 328 327 323 319 314 309 307 303 304 304 299 300 303 304 303 299 295 293 291 291 291 287 284 278 274 275 277 279 278 276 274 272 270 268 265 263 264 267 269 271 272 273 273